WGN6263 LEZL-LFBO

Flight info

Callsign WGN6263
Flight time 1h 16m
Altitude 38000
Route HIJ N10 VTB N871 RONNY/N0460F280 N871 TOPTU
Aircraft MD11/H-SDE1E2E3FGHIJ2J3J4J5M1RWXY/LB1D1

Departure

Time 2026-04-20 22:42
Airport Seville Airport (LEZL)

Arrival

Time 2026-04-20 23:58
Airport Toulouse-Blagnac Airport (LFBO)
Time Latitude Longitude Altitude Speed Heading
2026-04-20 22:24 37.41339 -5.88583 107 ft 0 kts 360°
2026-04-20 22:37 37.41343 -5.88581 107 ft 1 kts 16°
2026-04-20 22:37 37.41353 -5.88565 106 ft 4 kts 57°
2026-04-20 22:38 37.41353 -5.88519 108 ft 7 kts 108°
2026-04-20 22:38 37.41315 -5.88441 108 ft 14 kts 126°
2026-04-20 22:38 37.41286 -5.88302 109 ft 20 kts 92°
2026-04-20 22:38 37.41286 -5.88111 109 ft 23 kts 88°
2026-04-20 22:39 37.41297 -5.87914 110 ft 21 kts 85°
2026-04-20 22:39 37.41307 -5.87736 111 ft 19 kts 87°
2026-04-20 22:39 37.41331 -5.87669 111 ft 3 kts 29°
2026-04-20 22:39 37.41368 -5.87651 112 ft 10 kts 21°
2026-04-20 22:40 37.41453 -5.87593 117 ft 18 kts 35°
2026-04-20 22:40 37.41560 -5.87489 120 ft 20 kts 37°
2026-04-20 22:40 37.41667 -5.87391 121 ft 18 kts 27°
2026-04-20 22:40 37.41771 -5.87409 121 ft 14 kts 318°
2026-04-20 22:41 37.41799 -5.87513 121 ft 13 kts 274°
2026-04-20 22:41 37.41800 -5.87642 121 ft 20 kts 270°
2026-04-20 22:41 37.41798 -5.88039 112 ft 88 kts 270°
2026-04-20 22:41 37.41794 -5.89205 110 ft 172 kts 269°
2026-04-20 22:42 37.41807 -5.90779 789 ft 178 kts 273°
2026-04-20 22:42 37.42141 -5.92241 1929 ft 174 kts 302°
2026-04-20 22:42 37.42897 -5.93424 3000 ft 176 kts 313°
2026-04-20 22:42 37.43821 -5.94606 3574 ft 212 kts 316°
2026-04-20 22:43 37.44997 -5.96011 3738 ft 253 kts 317°
2026-04-20 22:43 37.46344 -5.97607 4306 ft 270 kts 317°
2026-04-20 22:43 37.47727 -5.99245 5431 ft 275 kts 316°
2026-04-20 22:43 37.49114 -6.00892 6510 ft 281 kts 316°
2026-04-20 22:44 37.50548 -6.02599 7611 ft 283 kts 316°
2026-04-20 22:44 37.51989 -6.04316 8708 ft 286 kts 316°
2026-04-20 22:44 37.53439 -6.06045 9766 ft 289 kts 315°
2026-04-20 22:44 37.54965 -6.07810 10262 ft 313 kts 320°
2026-04-20 22:45 37.56869 -6.09374 10399 ft 348 kts 334°
2026-04-20 22:45 37.59271 -6.10177 10966 ft 365 kts 355°
2026-04-20 22:45 37.61832 -6.09876 11879 ft 373 kts 16°
2026-04-20 22:45 37.64188 -6.08444 12745 ft 380 kts 34°
2026-04-20 22:46 37.65581 -6.07092 13295 ft 385 kts 40°
2026-04-20 22:46 37.68202 -6.04052 14341 ft 392 kts 44°
2026-04-20 22:46 37.70206 -6.01625 15150 ft 397 kts 43°
2026-04-20 22:46 37.72224 -5.99221 15915 ft 401 kts 43°
2026-04-20 22:47 37.73596 -5.97617 16416 ft 404 kts 42°
2026-04-20 22:47 37.75690 -5.95214 17177 ft 409 kts 41°
2026-04-20 22:47 37.77822 -5.92798 17920 ft 413 kts 41°
2026-04-20 22:47 37.79991 -5.90360 18573 ft 417 kts 40°
2026-04-20 22:48 37.82174 -5.87914 19208 ft 421 kts 40°
2026-04-20 22:48 37.84355 -5.85473 19815 ft 425 kts 40°
2026-04-20 22:48 37.86579 -5.82981 20396 ft 428 kts 40°
2026-04-20 22:48 37.88823 -5.80465 21011 ft 432 kts 40°
2026-04-20 22:49 37.91083 -5.77927 21626 ft 436 kts 40°
2026-04-20 22:49 37.93338 -5.75376 22250 ft 440 kts 41°
2026-04-20 22:49 37.95636 -5.72742 22891 ft 443 kts 41°
2026-04-20 22:49 37.97930 -5.70110 23540 ft 447 kts 41°
2026-04-20 22:50 38.00257 -5.67449 24069 ft 451 kts 40°
2026-04-20 22:50 38.02578 -5.64806 24614 ft 455 kts 40°
2026-04-20 22:50 38.04948 -5.62112 25189 ft 459 kts 40°
2026-04-20 22:50 38.07343 -5.59393 25759 ft 463 kts 40°
2026-04-20 22:51 38.09758 -5.56649 26311 ft 467 kts 40°
2026-04-20 22:51 38.12197 -5.53878 26871 ft 471 kts 40°
2026-04-20 22:51 38.14619 -5.51123 27390 ft 475 kts 40°
2026-04-20 22:51 38.17101 -5.48297 27933 ft 480 kts 40°
2026-04-20 22:52 38.19604 -5.45444 28460 ft 484 kts 40°
2026-04-20 22:52 38.22120 -5.42573 28996 ft 488 kts 40°
2026-04-20 22:52 38.24640 -5.39690 29527 ft 492 kts 40°
2026-04-20 22:52 38.27189 -5.36758 29996 ft 496 kts 40°
2026-04-20 22:53 38.29758 -5.33798 30388 ft 499 kts 40°
2026-04-20 22:53 38.32345 -5.30822 30918 ft 499 kts 40°
2026-04-20 22:53 38.34892 -5.27892 31445 ft 499 kts 40°
2026-04-20 22:53 38.37478 -5.24919 31997 ft 498 kts 40°
2026-04-20 22:54 38.40053 -5.21960 32527 ft 497 kts 40°
2026-04-20 22:54 38.42614 -5.19014 33053 ft 496 kts 40°
2026-04-20 22:54 38.45147 -5.16098 33541 ft 495 kts 40°
2026-04-20 22:54 38.47707 -5.13148 34013 ft 494 kts 40°
2026-04-20 22:55 38.50259 -5.10204 34420 ft 493 kts 40°
2026-04-20 22:55 38.52805 -5.07264 34800 ft 493 kts 40°
2026-04-20 22:55 38.55352 -5.04320 35191 ft 493 kts 41°
2026-04-20 22:55 38.57866 -5.01341 35557 ft 492 kts 42°
2026-04-20 22:56 38.60332 -4.98293 35926 ft 492 kts 43°
2026-04-20 22:56 38.62768 -4.95215 36270 ft 491 kts 44°
2026-04-20 22:56 38.65165 -4.92165 36607 ft 491 kts 44°
2026-04-20 22:56 38.67587 -4.89081 36944 ft 491 kts 44°
2026-04-20 22:57 38.70012 -4.85997 37270 ft 490 kts 44°
2026-04-20 22:57 38.72440 -4.82916 37579 ft 490 kts 44°
2026-04-20 22:57 38.74844 -4.79867 37873 ft 491 kts 44°
2026-04-20 22:57 38.77283 -4.76774 37946 ft 492 kts 44°
2026-04-20 22:58 38.82203 -4.70529 37952 ft 499 kts 44°
2026-04-20 22:58 38.87139 -4.64250 37957 ft 502 kts 44°
2026-04-20 22:59 38.92099 -4.57923 37961 ft 502 kts 44°
2026-04-20 22:59 38.97030 -4.51613 37967 ft 502 kts 44°
2026-04-20 23:00 39.01991 -4.45264 37967 ft 502 kts 44°
2026-04-20 23:00 39.06953 -4.38918 37968 ft 503 kts 44°
2026-04-20 23:01 39.11889 -4.32594 37972 ft 503 kts 44°
2026-04-20 23:01 39.16858 -4.26216 37968 ft 503 kts 44°
2026-04-20 23:02 39.21795 -4.19863 37971 ft 502 kts 44°
2026-04-20 23:02 39.26727 -4.13504 37974 ft 502 kts 44°
2026-04-20 23:03 39.31667 -4.07121 37975 ft 502 kts 44°
2026-04-20 23:03 39.36608 -4.00723 37975 ft 502 kts 44°
2026-04-20 23:04 39.41543 -3.94319 37973 ft 502 kts 44°
2026-04-20 23:04 39.46471 -3.87911 37977 ft 502 kts 44°
2026-04-20 23:05 39.51365 -3.81534 37977 ft 502 kts 44°
2026-04-20 23:05 39.56289 -3.75065 37963 ft 502 kts 44°
2026-04-20 23:06 39.61190 -3.68600 37976 ft 502 kts 44°
2026-04-20 23:06 39.65820 -3.62497 37963 ft 502 kts 44°
2026-04-20 23:07 39.70688 -3.56077 37952 ft 501 kts 44°
2026-04-20 23:07 39.75582 -3.49611 37959 ft 501 kts 44°
2026-04-20 23:08 39.80919 -3.43825 37962 ft 497 kts 33°
2026-04-20 23:08 39.86693 -3.38922 37960 ft 497 kts 30°
2026-04-20 23:09 39.92523 -3.34074 37962 ft 496 kts 31°
2026-04-20 23:09 39.98311 -3.29134 37963 ft 496 kts 31°
2026-04-20 23:10 40.04040 -3.24175 37964 ft 496 kts 31°
2026-04-20 23:10 40.09786 -3.19184 37970 ft 495 kts 31°
2026-04-20 23:11 40.15513 -3.14203 37974 ft 495 kts 31°
2026-04-20 23:11 40.21264 -3.09193 37973 ft 495 kts 31°
2026-04-20 23:12 40.26962 -3.04214 37979 ft 494 kts 32°
2026-04-20 23:12 40.32673 -2.99197 37982 ft 494 kts 32°
2026-04-20 23:13 40.38385 -2.94178 37984 ft 493 kts 32°
2026-04-20 23:13 40.44059 -2.89192 37986 ft 493 kts 31°
2026-04-20 23:14 40.49757 -2.84176 37987 ft 492 kts 31°
2026-04-20 23:14 40.55450 -2.79153 37990 ft 492 kts 31°
2026-04-20 23:15 40.61145 -2.74118 37993 ft 492 kts 31°
2026-04-20 23:15 40.66800 -2.69108 38000 ft 492 kts 31°
2026-04-20 23:16 40.72492 -2.64054 37999 ft 491 kts 31°
2026-04-20 23:16 40.78131 -2.59037 37999 ft 491 kts 31°
2026-04-20 23:17 40.83796 -2.53986 38000 ft 491 kts 31°
2026-04-20 23:17 40.89476 -2.48912 38095 ft 491 kts 32°
2026-04-20 23:18 40.94447 -2.44461 38004 ft 492 kts 32°
2026-04-20 23:18 41.00123 -2.39340 37999 ft 492 kts 32°
2026-04-20 23:19 41.05752 -2.34237 37994 ft 493 kts 33°
2026-04-20 23:19 41.11218 -2.28701 37990 ft 493 kts 37°
2026-04-20 23:20 41.16513 -2.22991 37984 ft 493 kts 37°
2026-04-20 23:20 41.21844 -2.17237 37981 ft 492 kts 37°
2026-04-20 23:21 41.27176 -2.11513 37982 ft 492 kts 37°
2026-04-20 23:21 41.32470 -2.05837 37978 ft 491 kts 37°
2026-04-20 23:22 41.37790 -2.00120 37975 ft 490 kts 37°
2026-04-20 23:22 41.43052 -1.94451 37974 ft 489 kts 37°
2026-04-20 23:23 41.48341 -1.88740 37973 ft 488 kts 37°
2026-04-20 23:23 41.53618 -1.83030 37965 ft 487 kts 37°
2026-04-20 23:24 41.58858 -1.77347 37964 ft 486 kts 37°
2026-04-20 23:24 41.64106 -1.71644 37962 ft 485 kts 37°
2026-04-20 23:25 41.69352 -1.65930 37953 ft 485 kts 37°
2026-04-20 23:25 41.74537 -1.60242 37946 ft 485 kts 37°
2026-04-20 23:26 41.79756 -1.54503 37943 ft 485 kts 37°
2026-04-20 23:26 41.84979 -1.48769 37936 ft 485 kts 37°
2026-04-20 23:27 41.90187 -1.43048 37934 ft 485 kts 37°
2026-04-20 23:27 41.95425 -1.37282 37927 ft 485 kts 37°
2026-04-20 23:28 42.00617 -1.31552 37925 ft 485 kts 37°
2026-04-20 23:28 42.05849 -1.25767 37927 ft 486 kts 37°
2026-04-20 23:29 42.11074 -1.19968 37932 ft 486 kts 37°
2026-04-20 23:29 42.16247 -1.14200 37935 ft 485 kts 37°
2026-04-20 23:30 42.21468 -1.08380 37941 ft 485 kts 37°
2026-04-20 23:30 42.26643 -1.02608 37945 ft 485 kts 37°
2026-04-20 23:31 42.31865 -0.96772 37954 ft 485 kts 37°
2026-04-20 23:31 42.37057 -0.90956 37964 ft 485 kts 37°
2026-04-20 23:32 42.42222 -0.85136 37967 ft 480 kts 39°
2026-04-20 23:32 42.46720 -0.78481 37982 ft 484 kts 49°
2026-04-20 23:33 42.50770 -0.71157 37983 ft 485 kts 51°
2026-04-20 23:33 42.54775 -0.63857 37990 ft 485 kts 50°
2026-04-20 23:34 42.58176 -0.57774 38002 ft 485 kts 50°
2026-04-20 23:34 42.62281 -0.50483 38007 ft 485 kts 50°
2026-04-20 23:35 42.68430 -0.39548 38012 ft 486 kts 50°
2026-04-20 23:35 42.70477 -0.35898 37887 ft 487 kts 50°
2026-04-20 23:36 42.72542 -0.32210 36991 ft 488 kts 50°
2026-04-20 23:36 42.74593 -0.28540 36239 ft 486 kts 50°
2026-04-20 23:36 42.76614 -0.24917 35632 ft 488 kts 50°
2026-04-20 23:36 42.78676 -0.21220 35049 ft 490 kts 50°
2026-04-20 23:37 42.80727 -0.17515 34497 ft 491 kts 50°
2026-04-20 23:37 42.82787 -0.13775 33826 ft 492 kts 50°
2026-04-20 23:37 42.84828 -0.10069 33151 ft 493 kts 50°
2026-04-20 23:37 42.86893 -0.06319 32516 ft 495 kts 50°
2026-04-20 23:38 42.88963 -0.02563 31901 ft 495 kts 50°
2026-04-20 23:38 42.91041 0.01207 31294 ft 496 kts 51°
2026-04-20 23:38 42.93122 0.04985 30674 ft 497 kts 51°
2026-04-20 23:38 42.95197 0.08757 30020 ft 497 kts 51°
2026-04-20 23:39 42.97276 0.12539 29305 ft 498 kts 51°
2026-04-20 23:39 42.99324 0.16272 28621 ft 494 kts 51°
2026-04-20 23:39 43.01376 0.20019 27968 ft 488 kts 51°
2026-04-20 23:39 43.03401 0.23721 27313 ft 483 kts 51°
2026-04-20 23:40 43.05379 0.27359 26676 ft 478 kts 51°
2026-04-20 23:40 43.07354 0.31006 25999 ft 473 kts 51°
2026-04-20 23:40 43.09307 0.34615 25328 ft 467 kts 51°
2026-04-20 23:40 43.11206 0.38123 24692 ft 462 kts 51°
2026-04-20 23:41 43.13113 0.41646 24020 ft 457 kts 51°
2026-04-20 23:41 43.14998 0.45129 23351 ft 452 kts 51°
2026-04-20 23:41 43.16862 0.48578 22629 ft 447 kts 51°
2026-04-20 23:41 43.18705 0.51989 21969 ft 443 kts 51°
2026-04-20 23:42 43.20530 0.55372 21326 ft 439 kts 51°
2026-04-20 23:42 43.22322 0.58697 20711 ft 436 kts 51°
2026-04-20 23:42 43.24123 0.62042 20087 ft 432 kts 51°
2026-04-20 23:42 43.25887 0.65322 19513 ft 428 kts 51°
2026-04-20 23:43 43.27653 0.68611 19116 ft 426 kts 51°
2026-04-20 23:43 43.29376 0.71902 18935 ft 425 kts 54°
2026-04-20 23:43 43.30732 0.75544 18842 ft 429 kts 69°
2026-04-20 23:43 43.31300 0.79571 18754 ft 431 kts 85°
2026-04-20 23:44 43.31279 0.83654 18658 ft 432 kts 92°
2026-04-20 23:44 43.31031 0.87758 18544 ft 432 kts 95°
2026-04-20 23:44 43.30740 0.91894 17826 ft 431 kts 95°
2026-04-20 23:44 43.30479 0.95931 17251 ft 425 kts 94°
2026-04-20 23:45 43.30257 0.99970 16946 ft 422 kts 93°
2026-04-20 23:45 43.30070 1.03908 16823 ft 402 kts 92°
2026-04-20 23:45 43.29908 1.07650 16704 ft 382 kts 92°
2026-04-20 23:45 43.29763 1.11175 16571 ft 365 kts 92°
2026-04-20 23:46 43.29626 1.14595 16347 ft 351 kts 92°
2026-04-20 23:46 43.29573 1.17914 15880 ft 344 kts 83°
2026-04-20 23:46 43.30133 1.21042 15439 ft 337 kts 60°
2026-04-20 23:46 43.31555 1.23454 14827 ft 327 kts 32°
2026-04-20 23:47 43.33585 1.24705 14315 ft 315 kts
2026-04-20 23:47 43.35716 1.25180 14019 ft 303 kts
2026-04-20 23:47 43.37789 1.25248 13890 ft 296 kts 348°
2026-04-20 23:47 43.39727 1.24444 13834 ft 290 kts 333°
2026-04-20 23:48 43.41508 1.23204 13774 ft 289 kts 329°
2026-04-20 23:48 43.43287 1.21854 13250 ft 293 kts 328°
2026-04-20 23:48 43.45077 1.20483 12704 ft 294 kts 328°
2026-04-20 23:48 43.46876 1.19117 12178 ft 294 kts 329°
2026-04-20 23:49 43.48677 1.17762 11668 ft 294 kts 329°
2026-04-20 23:49 43.50453 1.16435 11159 ft 293 kts 329°
2026-04-20 23:49 43.52251 1.15097 10647 ft 293 kts 329°
2026-04-20 23:49 43.54051 1.13760 10166 ft 292 kts 329°
2026-04-20 23:50 43.55829 1.12443 9719 ft 289 kts 329°
2026-04-20 23:50 43.57604 1.11128 9235 ft 287 kts 329°
2026-04-20 23:50 43.59340 1.09842 8849 ft 282 kts 329°
2026-04-20 23:50 43.61047 1.08578 8459 ft 278 kts 329°
2026-04-20 23:51 43.62747 1.07324 8099 ft 273 kts 331°
2026-04-20 23:51 43.64532 1.06553 7969 ft 271 kts 351°
2026-04-20 23:51 43.66438 1.06499 7328 ft 282 kts
2026-04-20 23:51 43.68425 1.06710 6707 ft 289 kts
2026-04-20 23:52 43.70439 1.06980 6169 ft 291 kts
2026-04-20 23:52 43.72466 1.07259 5672 ft 291 kts
2026-04-20 23:52 43.74468 1.07589 5221 ft 288 kts 10°
2026-04-20 23:52 43.76318 1.08602 4803 ft 286 kts 35°
2026-04-20 23:53 43.77559 1.10631 4581 ft 276 kts 63°
2026-04-20 23:53 43.78237 1.13018 4479 ft 253 kts 72°
2026-04-20 23:53 43.78727 1.15257 4322 ft 231 kts 74°
2026-04-20 23:53 43.78963 1.17375 4066 ft 218 kts 93°
2026-04-20 23:54 43.78535 1.19302 3699 ft 211 kts 125°
2026-04-20 23:54 43.77533 1.20723 3388 ft 202 kts 139°
2026-04-20 23:54 43.76478 1.21969 3093 ft 196 kts 141°
2026-04-20 23:54 43.75418 1.23107 3002 ft 194 kts 143°
2026-04-20 23:55 43.74348 1.24217 2911 ft 195 kts 143°
2026-04-20 23:55 43.73272 1.25339 2661 ft 193 kts 143°
2026-04-20 23:55 43.72203 1.26457 2412 ft 191 kts 142°
2026-04-20 23:55 43.71192 1.27513 2135 ft 172 kts 142°
2026-04-20 23:56 43.70274 1.28472 1900 ft 161 kts 142°
2026-04-20 23:56 43.69396 1.29391 1723 ft 159 kts 142°
2026-04-20 23:56 43.68514 1.30315 1525 ft 158 kts 142°
2026-04-20 23:56 43.67638 1.31234 1324 ft 157 kts 142°
2026-04-20 23:57 43.66770 1.32159 1147 ft 157 kts 142°
2026-04-20 23:57 43.65903 1.33061 941 ft 156 kts 143°
2026-04-20 23:57 43.65036 1.33952 697 ft 155 kts 142°
2026-04-20 23:57 43.64183 1.34835 506 ft 153 kts 142°
2026-04-20 23:58 43.63451 1.35593 501 ft 107 kts 143°
2026-04-20 23:58 43.62962 1.36104 501 ft 70 kts 143°
2026-04-20 23:58 43.62638 1.36440 501 ft 54 kts 143°
2026-04-20 23:58 43.62368 1.36719 501 ft 38 kts 142°
2026-04-20 23:59 43.62169 1.36930 501 ft 31 kts 142°
2026-04-20 23:59 43.62036 1.37054 501 ft 16 kts 167°
2026-04-20 23:59 43.61950 1.36994 501 ft 14 kts 233°
2026-04-20 23:59 43.61897 1.36890 501 ft 13 kts 233°
2026-04-21 00:00 43.61834 1.36778 501 ft 18 kts 232°
2026-04-21 00:00 43.61748 1.36652 501 ft 15 kts 205°
2026-04-21 00:00 43.61655 1.36638 501 ft 13 kts 168°
2026-04-21 00:00 43.61572 1.36640 501 ft 10 kts 192°
2026-04-21 00:01 43.61517 1.36605 501 ft 7 kts 227°
2026-04-21 00:01 43.61504 1.36545 501 ft 9 kts 264°
2026-04-21 00:01 43.61503 1.36478 501 ft 0 kts 272°